Location: Stamford Observatory
(41.1241°N, 73.5498°W)
Time: 20:44:26
(UTC-04:00)

Daily predictions for brighter satellites

Satellite Brightness Start Highest point End
(mag) Time Altitude Azimuth Time Altitude Azimuth Time Altitude Azimuth
SL-8 Rocket 4.4 18:22:03 10° SSW 18:28:13 70° W 18:34:28 10° N
Cosmos 158 Rocket 4.3 18:25:09 10° S 18:29:57 46° ESE 18:34:55 10° NNE
Cosmos 1048 Rocket 4.3 18:30:28 10° S 18:35:16 42° ESE 18:40:05 10° NNE
APEX 2.9 18:32:27 10° S 18:35:28 43° ESE 18:38:11 10° NE
BREEZE-M DEB (TANK) 1.9 18:33:58 10° WNW 18:36:13 46° SW 18:38:11 10° SE
ERS-2 2.1 18:34:02 10° SSE 18:37:43 84° ENE 18:41:27 10° NNW
SL-24 R/B - RUBIN 2 4.1 18:35:01 10° NW 18:39:48 66° WSW 18:44:09 10° SSE
YAOGAN 1 2.5 18:35:39 10° SSE 18:39:56 70° ENE 18:44:16 10° N
Cosmos 1420 Rocket 4.0 18:36:24 10° NNW 18:41:42 67° ENE 18:46:56 10° SSE
Cosmos 1726 3.1 18:41:39 10° SSE 18:44:43 25° E 18:47:48 10° NE
GRACE-2 4.0 18:42:23 10° SSE 18:44:50 42° E 18:47:18 10° NNE
CZ-4 R/B 1.9 18:40:46 10° S 18:44:57 70° W 18:49:05 10° NNW
Cosmos 2322 3.8 18:39:40 10° NNW 18:45:26 86° WSW 18:51:08 10° SSE
DELTA 2 R/B (1) 4.3 18:40:16 10° W 18:45:39 51° SSW 18:51:03 10° SE
EO 1 Del DPAF 3.2 18:44:15 10° NNE 18:48:06 68° ESE 18:51:54 10° S
CZ-2C R/B 4.0 18:44:32 10° N 18:49:02 69° WNW 18:53:25 10° SSW
GRACE-1 3.6 18:47:56 10° SSE 18:50:28 58° E 18:53:01 10° N
NOAA 12 4.4 18:45:49 10° SE 18:50:48 44° ENE 18:55:50 10° N
Cosmos 2219 Rocket 2.7 18:46:39 10° N 18:51:52 38° ENE 18:57:04 10° SE
Landsat 4 4.4 18:48:16 10° N 18:51:55 56° WNW 18:55:33 10° SSW
Cosmos 1821 Rocket 4.3 18:46:40 10° SSE 18:52:27 44° E 18:58:20 10° NNE
METEOR-M 4.1 18:51:00 10° SSE 18:56:19 75° ENE 19:01:40 10° N
BREEZE-M DEB (TANK) 2.9 18:55:21 10° W 18:57:29 31° NNW 18:58:55 14° NE
Cosmos 2221 2.4 18:56:38 10° S 19:00:55 74° E 19:05:17 10° NNE
Delta 2 Rocket 4.4 18:58:08 10° WSW 19:01:43 32° S 19:04:38 12° SE
Meteor 1-28 Rocket 4.3 18:58:22 10° N 19:02:01 47° WNW 19:05:37 10° SSW
ALOS 2.5 18:57:34 10° SE 19:02:03 49° ENE 19:06:33 10° N
Cosmos 2084 4.0 18:58:46 10° NNW 19:02:11 31° NE 19:04:15 19° E
Thor Agena Rocket 4.2 18:58:35 10° NE 19:03:04 31° E 19:07:30 10° SSE
Cosmos 1315 Rocket 3.2 19:00:48 10° NNW 19:04:52 70° W 19:08:58 10° S
Cosmos 921 Rocket 3.8 19:01:32 10° NNW 19:05:53 57° WSW 19:10:07 10° S
SKYMED 2 3.5 19:02:35 10° NNE 19:06:57 90° WSW 19:11:18 10° SSW
GP-B 4.2 19:05:57 10° N 19:10:13 47° W 19:14:28 10° SSW
Cosmos 2333 4.3 19:15:38 10° NNW 19:21:23 83° WSW 19:27:09 10° SSE
BREEZE-M R/B 2.9 19:20:35 10° SSW 19:22:59 34° SE 19:23:16 33° ESE
Cosmos 2123 Rocket 4.1 19:17:18 10° N 19:23:21 50° ENE 19:29:26 10° SSE
SJ-6B 3.7 19:25:54 27° NE 19:25:54 27° NE 19:28:27 10° N
Cosmos 1605 Rocket 4.2 19:21:18 10° SSE 19:26:58 41° E 19:32:37 10° NNE
In-Cosmos 22 Rocket 4.5 19:21:46 10° N 19:27:20 48° ENE 19:32:56 10° SSE
Cosmos 2237 Rocket 2.6 19:23:46 10° N 19:29:10 41° ENE 19:31:45 26° ESE
Cosmos 1269 Rocket 4.3 19:25:07 10° SSW 19:30:22 71° WNW 19:35:40 10° NNE
Cosmos 44 4.1 19:26:32 10° SW 19:30:41 43° NW 19:34:50 10° NNE
DMSP B5D1-3 4.5 19:25:45 10° NNE 19:30:54 89° WNW 19:36:03 10° SSW
H-2A R/B 2.9 19:32:05 29° SE 19:33:42 50° ENE 19:37:30 10° N
Aureole 2 Rocket 2.8 19:31:00 10° NNW 19:34:58 78° WSW 19:39:02 10° SSE
Cosmos 2227 Rocket 2.5 19:30:46 10° S 19:36:04 44° ESE 19:39:16 23° NE
NOSS 0 Rocket 3.8 19:33:46 10° NNW 19:39:56 70° ENE 19:44:52 16° SE
SWAS 4.4 19:37:32 10° S 19:41:42 56° ESE 19:42:35 46° ENE
SL-16 R/B 3.4 19:37:10 10° N 19:41:21 24° NE 19:41:21 24° NE
Atlas Centaur 2 4.3 19:41:03 10° SSW 19:42:16 11° SSW 19:43:32 10° S
Iridium 4 Rocket 4.2 19:36:59 10° SSW 19:42:34 64° W 19:48:27 10° N
Gbstr 26 Del rocket 3.8 19:38:11 10° WNW 19:43:16 73° SW 19:47:06 24° SE
Abrixas rocket 3.5 19:40:53 10° NW 19:43:32 29° N 19:43:32 29° N
Centaur D AC-28 4.5 19:43:22 10° S 19:47:17 19° SE 19:47:35 19° SE
Cosmos 1300 2.8 19:44:23 10° SSW 19:48:12 75° W 19:52:02 10° N
Cosmos 494 Rocket 3.8 19:43:46 10° S 19:48:50 69° ESE 19:52:55 16° NNE
BREEZE M DEB (TANK) 4.4 19:31:50 10° WNW 19:50:10 62° NNE 19:52:21 38° ENE
Sich 1 3.1 19:46:14 10° N 19:50:37 78° W 19:55:01 10° S
Cosmos 1980 3.6 19:48:02 10° NNW 19:53:42 69° ENE 19:55:59 36° SE
Resurs 01 Rocket 3.5 19:57:31 17° NNE 19:57:31 17° NNE 19:58:48 10° N
CZ-4C R/B 3.1 19:52:10 10° WSW 19:57:13 47° NW 20:02:54 10° NNE
Cosmos 1110 Rocket 3.9 19:52:35 10° NNW 19:57:56 88° WSW 20:01:18 23° SSE
Meteor 2-3 Rocket 3.9 19:55:00 10° N 20:00:30 49° ENE 20:00:30 49° ENE
COSMOS 2428 4.3 19:58:08 10° NW 20:03:14 35° WSW 20:08:19 10° SSW
USA 32 3.9 19:59:21 10° N 20:04:33 63° E 20:04:45 62° E
Cosmos 2333 Rocket 2.5 20:00:38 10° NNW 20:06:20 66° WSW 20:11:07 15° S
Hubble Space Telescope 3.3 20:09:19 10° SSW 20:10:06 12° SSW 20:10:06 12° SSW
Cosmos 2297 Rocket 2.0 20:07:37 10° SSW 20:13:14 75° ESE 20:14:04 63° NE
Cosmos 1328 Rocket 3.8 20:15:35 10° SSW 20:25:10 - N 20:19:44 65° W
Cosmos 1633 Rocket 4.1 20:16:33 10° NNW 20:20:46 44° W 20:24:47 11° SSW
Envisat 4.2 20:24:49 31° N 20:24:49 31° N 20:27:30 10° N
Cosmos 2082 3.6 20:17:57 10° SSW 20:23:41 88° ESE 20:24:19 72° NNE
Cosmos 2251 Rocket 3.5 20:19:08 10° SSW 20:24:26 79° WNW 20:25:27 59° N
Cosmos 2219 Rocket 3.9 20:30:51 10° NW 20:35:39 30° WSW 20:40:28 10° SSW
USA 267 3.7 20:48:33 48° SSW 20:48:33 48° SSW 20:53:15 10° SW
BREEZE-M DEB (TANK) 4.0 20:54:50 10° WNW 21:04:20 53° W 21:04:20 53° W
Cosmos 2237 Rocket 3.8 21:08:13 10° NW 21:13:00 28° WSW 21:13:39 28° WSW
Cosmos 2227 Rocket 4.0 21:15:28 10° WSW 21:20:17 28° NW 21:21:12 27° NW
USA 234 4.5 21:23:45 33° NNW 21:23:45 33° NNW 21:27:41 10° NW
SL-16 R/B 4.0 21:20:37 10° NNW 21:23:15 27° NW 21:23:15 27° NW
